Location: ?????????
(38.0736°N, 23.2119°E)
Time: 17:46:22
(UTC+00:00)

CZ-4B R/B - Visible Passes

Search period start: 12 June 2025 00:00
Search period end: 22 June 2025 00:00
Orbit: 807 x 881 km, 98.9° (Epoch: 11 June)

Date Brightness Start Highest point End Pass type
(mag) Time Alt. Az. Time Alt. Az. Time Alt. Az.
12 Jun 3.4 18:51:42 10° S 18:57:01 71° WSW 19:02:18 10° NNW visible
13 Jun 3.1 18:37:54 10° SSE 18:43:14 87° ENE 18:48:33 10° NNW visible
14 Jun 3.2 18:24:14 10° SSE 18:29:29 65° ENE 18:34:43 10° N visible
14 Jun 5.6 20:07:45 10° WSW 20:10:26 14° W 20:13:08 10° WNW visible
15 Jun 5.3 19:52:48 10° SW 19:56:30 19° W 20:00:14 10° NW visible
16 Jun 4.9 19:38:16 10° SSW 19:42:37 26° W 19:47:00 10° NW visible
17 Jun 4.5 19:23:57 10° SSW 19:28:46 35° W 19:33:34 10° NNW visible
18 Jun 4.0 19:09:50 10° S 19:14:55 47° W 19:20:01 10° NNW visible
19 Jun 3.5 18:55:52 10° S 19:01:07 65° WSW 19:06:22 10° NNW visible
20 Jun 3.2 18:42:01 10° SSE 18:47:19 87° WSW 18:52:38 10° NNW visible
21 Jun 3.2 18:28:19 10° SSE 18:33:33 70° ENE 18:38:49 10° N visible
21 Jun 5.6 20:12:20 10° WSW 20:14:34 13° W 20:16:49 10° WNW visible
